Year,Month,Day,Hour,Minute,Value (Times are PST for temperature in C)
2015,07,30,00,00,14.80
2015,07,30,00,01,14.70
2015,07,30,00,02,14.60
2015,07,30,00,03,14.60
2015,07,30,00,04,14.50
2015,07,30,00,05,14.40
2015,07,30,00,06,14.40
2015,07,30,00,07,14.60
2015,07,30,00,08,14.70
2015,07,30,00,09,14.70
2015,07,30,00,10,14.70
2015,07,30,00,11,14.80
2015,07,30,00,12,14.80
2015,07,30,00,13,14.90
2015,07,30,00,14,15.00
2015,07,30,00,15,15.10
2015,07,30,00,16,15.20
2015,07,30,00,17,15.30
2015,07,30,00,18,15.40
2015,07,30,00,19,15.60
2015,07,30,00,20,15.70
2015,07,30,00,21,15.90
2015,07,30,00,22,16.10
2015,07,30,00,23,16.30
2015,07,30,00,24,16.50
2015,07,30,00,25,16.60
2015,07,30,00,26,16.70
2015,07,30,00,27,16.80
2015,07,30,00,28,16.90
2015,07,30,00,29,16.90
2015,07,30,00,30,17.00
2015,07,30,00,31,17.00
2015,07,30,00,32,16.90
2015,07,30,00,33,16.60
2015,07,30,00,34,16.30
2015,07,30,00,35,16.00
2015,07,30,00,36,15.70
2015,07,30,00,37,15.40
2015,07,30,00,38,15.10
2015,07,30,00,39,14.90
2015,07,30,00,40,14.70
2015,07,30,00,41,14.50
2015,07,30,00,42,14.40
2015,07,30,00,43,14.30
2015,07,30,00,44,14.40
2015,07,30,00,45,14.50
2015,07,30,00,46,14.70
2015,07,30,00,47,14.70
2015,07,30,00,48,14.50
2015,07,30,00,49,14.30
2015,07,30,00,50,14.20
2015,07,30,00,51,14.00
2015,07,30,00,52,13.90
2015,07,30,00,53,13.80
2015,07,30,00,54,13.70
2015,07,30,00,55,13.60
2015,07,30,00,56,13.60
2015,07,30,00,57,13.50
2015,07,30,00,58,13.40
2015,07,30,00,59,13.40
2015,07,30,01,00,13.40
2015,07,30,01,01,13.40
2015,07,30,01,02,13.50
2015,07,30,01,03,13.60
2015,07,30,01,04,13.60
2015,07,30,01,05,13.50
2015,07,30,01,06,13.50
2015,07,30,01,07,13.50
2015,07,30,01,08,13.40
2015,07,30,01,09,13.40
2015,07,30,01,10,13.40
2015,07,30,01,11,13.40
2015,07,30,01,12,13.30
2015,07,30,01,13,13.30
2015,07,30,01,14,13.30
2015,07,30,01,15,13.30
2015,07,30,01,16,13.30
2015,07,30,01,17,13.30
2015,07,30,01,18,13.30
2015,07,30,01,19,13.30
2015,07,30,01,20,13.30
2015,07,30,01,21,13.30
2015,07,30,01,22,13.30
2015,07,30,01,23,13.30
2015,07,30,01,24,13.40
2015,07,30,01,25,13.40
2015,07,30,01,26,13.50
2015,07,30,01,27,13.60
2015,07,30,01,28,13.70
2015,07,30,01,29,14.00
2015,07,30,01,30,14.30
2015,07,30,01,31,14.70
2015,07,30,01,32,15.00
2015,07,30,01,33,15.30
2015,07,30,01,34,15.60
2015,07,30,01,35,15.80
2015,07,30,01,36,15.90
2015,07,30,01,37,16.10
2015,07,30,01,38,16.30
2015,07,30,01,39,16.50
2015,07,30,01,40,16.70
2015,07,30,01,41,16.90
2015,07,30,01,42,17.00
2015,07,30,01,43,17.10
2015,07,30,01,44,17.10
2015,07,30,01,45,17.20
2015,07,30,01,46,17.20
2015,07,30,01,47,17.20
2015,07,30,01,48,17.30
2015,07,30,01,49,17.30
2015,07,30,01,50,17.30
2015,07,30,01,51,17.30
2015,07,30,01,52,17.30
2015,07,30,01,53,17.30
2015,07,30,01,54,17.30
2015,07,30,01,55,17.30
2015,07,30,01,56,17.20
2015,07,30,01,57,17.20
2015,07,30,01,58,17.20
2015,07,30,01,59,17.20
2015,07,30,02,00,17.20
2015,07,30,02,01,17.10
2015,07,30,02,02,17.10
2015,07,30,02,03,17.00
2015,07,30,02,04,17.00
2015,07,30,02,05,17.00
2015,07,30,02,06,16.90
2015,07,30,02,07,16.90
2015,07,30,02,08,16.90
2015,07,30,02,09,16.90
2015,07,30,02,10,16.90
2015,07,30,02,11,16.90
2015,07,30,02,12,16.80
2015,07,30,02,13,16.80
2015,07,30,02,14,16.70
2015,07,30,02,15,16.70
2015,07,30,02,16,16.60
2015,07,30,02,17,16.60
2015,07,30,02,18,16.50
2015,07,30,02,19,16.50
2015,07,30,02,20,16.40
2015,07,30,02,21,16.40
2015,07,30,02,22,16.40
2015,07,30,02,23,16.40
2015,07,30,02,24,16.50
2015,07,30,02,25,16.50
2015,07,30,02,26,16.50
2015,07,30,02,27,16.40
2015,07,30,02,28,16.40
2015,07,30,02,29,16.40
2015,07,30,02,30,16.40
2015,07,30,02,31,16.40
2015,07,30,02,32,16.40
2015,07,30,02,33,16.30
2015,07,30,02,34,16.30
2015,07,30,02,35,16.30
2015,07,30,02,36,16.30
2015,07,30,02,37,16.30
2015,07,30,02,38,16.30
2015,07,30,02,39,16.20
2015,07,30,02,40,16.20
2015,07,30,02,41,16.20
2015,07,30,02,42,16.10
2015,07,30,02,43,16.10
2015,07,30,02,44,16.10
2015,07,30,02,45,16.10
2015,07,30,02,46,16.00
2015,07,30,02,47,16.00
2015,07,30,02,48,16.00
2015,07,30,02,49,16.10
2015,07,30,02,50,16.10
2015,07,30,02,51,16.10
2015,07,30,02,52,16.20
2015,07,30,02,53,16.20
2015,07,30,02,54,16.20
2015,07,30,02,55,16.30
2015,07,30,02,56,16.30
2015,07,30,02,57,16.40
2015,07,30,02,58,16.50
2015,07,30,02,59,16.50
2015,07,30,03,00,16.60
2015,07,30,03,01,16.60
2015,07,30,03,02,16.70
2015,07,30,03,03,16.70
2015,07,30,03,04,16.80
2015,07,30,03,05,16.80
2015,07,30,03,06,16.90
2015,07,30,03,07,16.90
2015,07,30,03,08,17.00
2015,07,30,03,09,17.10
2015,07,30,03,10,17.20
2015,07,30,03,11,17.20
2015,07,30,03,12,17.30
2015,07,30,03,13,17.40
2015,07,30,03,14,17.50
2015,07,30,03,15,17.50
2015,07,30,03,16,17.60
2015,07,30,03,17,17.60
2015,07,30,03,18,17.60
2015,07,30,03,19,17.60
2015,07,30,03,20,17.60
2015,07,30,03,21,17.50
2015,07,30,03,22,17.40
2015,07,30,03,23,17.30
2015,07,30,03,24,17.10
2015,07,30,03,25,17.10
2015,07,30,03,26,17.10
2015,07,30,03,27,17.00
2015,07,30,03,28,17.00
2015,07,30,03,29,17.10
2015,07,30,03,30,17.10
2015,07,30,03,31,17.20
2015,07,30,03,32,17.20
2015,07,30,03,33,17.20
2015,07,30,03,34,17.10
2015,07,30,03,35,17.10
2015,07,30,03,36,17.10
2015,07,30,03,37,17.10
2015,07,30,03,38,17.00
2015,07,30,03,39,17.00
2015,07,30,03,40,16.90
2015,07,30,03,41,16.90
2015,07,30,03,42,16.80
2015,07,30,03,43,16.80
2015,07,30,03,44,16.80
2015,07,30,03,45,16.90
2015,07,30,03,46,16.90
2015,07,30,03,47,16.90
2015,07,30,03,48,17.00
2015,07,30,03,49,17.00
2015,07,30,03,50,17.00
2015,07,30,03,51,17.10
2015,07,30,03,52,17.10
2015,07,30,03,53,17.10
2015,07,30,03,54,17.10
2015,07,30,03,55,17.10
2015,07,30,03,56,17.10
2015,07,30,03,57,17.00
2015,07,30,03,58,17.00
2015,07,30,03,59,17.00
2015,07,30,04,00,16.90
2015,07,30,04,01,16.90
2015,07,30,04,02,16.90
2015,07,30,04,03,16.90
2015,07,30,04,04,16.90
2015,07,30,04,05,16.90
2015,07,30,04,06,16.90
2015,07,30,04,07,16.90
2015,07,30,04,08,16.80
2015,07,30,04,09,16.80
2015,07,30,04,10,16.80
2015,07,30,04,11,16.80
2015,07,30,04,12,16.80
2015,07,30,04,13,16.80
2015,07,30,04,14,16.80
2015,07,30,04,15,16.80
2015,07,30,04,16,16.80
2015,07,30,04,17,16.80
2015,07,30,04,18,16.80
2015,07,30,04,19,16.80
2015,07,30,04,20,16.80
2015,07,30,04,21,16.80
2015,07,30,04,22,16.80
2015,07,30,04,23,16.80
2015,07,30,04,24,16.80
2015,07,30,04,25,16.80
2015,07,30,04,26,16.80
2015,07,30,04,27,16.90
2015,07,30,04,28,16.90
2015,07,30,04,29,17.00
2015,07,30,04,30,17.00
2015,07,30,04,31,17.10
2015,07,30,04,32,17.10
2015,07,30,04,33,17.20
2015,07,30,04,34,17.20
2015,07,30,04,35,17.20
2015,07,30,04,36,17.20
2015,07,30,04,37,17.20
2015,07,30,04,38,17.30
2015,07,30,04,39,17.30
2015,07,30,04,40,17.30
2015,07,30,04,41,17.30
2015,07,30,04,42,17.30
2015,07,30,04,43,17.30
2015,07,30,04,44,17.30
2015,07,30,04,45,17.30
2015,07,30,04,46,17.30
2015,07,30,04,47,17.30
2015,07,30,04,48,17.30
2015,07,30,04,49,17.30
2015,07,30,04,50,17.30
2015,07,30,04,51,17.30
2015,07,30,04,52,17.20
2015,07,30,04,53,17.20
2015,07,30,04,54,17.20
2015,07,30,04,55,17.20
2015,07,30,04,56,17.20
2015,07,30,04,57,17.10
2015,07,30,04,58,17.10
2015,07,30,04,59,17.10
2015,07,30,05,00,17.10
2015,07,30,05,01,17.10
2015,07,30,05,02,17.10
2015,07,30,05,03,17.10
2015,07,30,05,04,17.10
2015,07,30,05,05,17.00
2015,07,30,05,06,17.00
2015,07,30,05,07,17.00
2015,07,30,05,08,17.00
2015,07,30,05,09,17.00
2015,07,30,05,10,17.00
2015,07,30,05,11,17.00
2015,07,30,05,12,17.00
2015,07,30,05,13,17.00
2015,07,30,05,14,17.00
2015,07,30,05,15,17.00
2015,07,30,05,16,17.00
2015,07,30,05,17,17.00
2015,07,30,05,18,17.00
2015,07,30,05,19,17.10
2015,07,30,05,20,17.10
2015,07,30,05,21,17.10
2015,07,30,05,22,17.10
2015,07,30,05,23,17.10
2015,07,30,05,24,17.20
2015,07,30,05,25,17.20
2015,07,30,05,26,17.30
2015,07,30,05,27,17.30
2015,07,30,05,28,17.30
2015,07,30,05,29,17.30
2015,07,30,05,30,17.40
2015,07,30,05,31,17.40
2015,07,30,05,32,17.40
2015,07,30,05,33,17.40
2015,07,30,05,34,17.40
2015,07,30,05,35,17.40
2015,07,30,05,36,17.40
2015,07,30,05,37,17.30
2015,07,30,05,38,17.30
2015,07,30,05,39,17.30
2015,07,30,05,40,17.20
2015,07,30,05,41,17.20
2015,07,30,05,42,17.10
2015,07,30,05,43,17.00
2015,07,30,05,44,17.00
2015,07,30,05,45,16.90
2015,07,30,05,46,16.90
2015,07,30,05,47,16.90
2015,07,30,05,48,16.80
2015,07,30,05,49,16.80
2015,07,30,05,50,16.90
2015,07,30,05,51,16.90
2015,07,30,05,52,16.90
2015,07,30,05,53,16.90
2015,07,30,05,54,17.00
2015,07,30,05,55,17.00
2015,07,30,05,56,17.10
2015,07,30,05,57,17.10
2015,07,30,05,58,17.10
2015,07,30,05,59,17.10
2015,07,30,06,00,17.10
2015,07,30,06,01,17.20
2015,07,30,06,02,17.20
2015,07,30,06,03,17.20
2015,07,30,06,04,17.20
2015,07,30,06,05,17.20
2015,07,30,06,06,17.20
2015,07,30,06,07,17.20
2015,07,30,06,08,17.30
2015,07,30,06,09,17.30
2015,07,30,06,10,17.30
2015,07,30,06,11,17.40
2015,07,30,06,12,17.40
2015,07,30,06,13,17.40
2015,07,30,06,14,17.50
2015,07,30,06,15,17.60
2015,07,30,06,16,17.60
2015,07,30,06,17,17.60
2015,07,30,06,18,17.50
2015,07,30,06,19,17.40
2015,07,30,06,20,17.30
2015,07,30,06,21,17.30
2015,07,30,06,22,17.30
2015,07,30,06,23,17.40
2015,07,30,06,24,17.40
2015,07,30,06,25,17.30
2015,07,30,06,26,17.00
2015,07,30,06,27,16.70
2015,07,30,06,28,16.40
2015,07,30,06,29,16.20
2015,07,30,06,30,16.00
2015,07,30,06,31,15.90
2015,07,30,06,32,15.70
2015,07,30,06,33,15.50
2015,07,30,06,34,15.40
2015,07,30,06,35,15.20
2015,07,30,06,36,15.10
2015,07,30,06,37,15.00
2015,07,30,06,38,14.90
2015,07,30,06,39,14.90
2015,07,30,06,40,14.90
2015,07,30,06,41,14.90
2015,07,30,06,42,15.00
2015,07,30,06,43,15.20
2015,07,30,06,44,15.30
2015,07,30,06,45,15.50
2015,07,30,06,46,15.60
2015,07,30,06,47,15.50
2015,07,30,06,48,15.50
2015,07,30,06,49,15.40
2015,07,30,06,50,15.30
2015,07,30,06,51,15.30
2015,07,30,06,52,15.20
2015,07,30,06,53,15.20
2015,07,30,06,54,15.20
2015,07,30,06,55,15.10
2015,07,30,06,56,15.10
2015,07,30,06,57,15.10
2015,07,30,06,58,15.10
2015,07,30,06,59,15.10
2015,07,30,07,00,15.10
2015,07,30,07,01,15.10
2015,07,30,07,02,15.20
2015,07,30,07,03,15.20
2015,07,30,07,04,15.20
2015,07,30,07,05,15.30
2015,07,30,07,06,15.40
2015,07,30,07,07,15.50
2015,07,30,07,08,15.60
2015,07,30,07,09,15.80
2015,07,30,07,10,15.90
2015,07,30,07,11,16.00
2015,07,30,07,12,16.10
2015,07,30,07,13,16.20
2015,07,30,07,14,16.10
2015,07,30,07,15,16.10
2015,07,30,07,16,16.10
2015,07,30,07,17,16.10
2015,07,30,07,18,16.20
2015,07,30,07,19,16.20
2015,07,30,07,20,16.20
2015,07,30,07,21,16.30
2015,07,30,07,22,16.30
2015,07,30,07,23,16.40
2015,07,30,07,24,16.50
2015,07,30,07,25,16.60
2015,07,30,07,26,16.60
2015,07,30,07,27,16.70
2015,07,30,07,28,16.70
2015,07,30,07,29,16.70
2015,07,30,07,30,16.70
2015,07,30,07,31,16.70
2015,07,30,07,32,16.60
2015,07,30,07,33,16.60
2015,07,30,07,34,16.50
2015,07,30,07,35,16.40
2015,07,30,07,36,16.40
2015,07,30,07,37,16.30
2015,07,30,07,38,16.20
2015,07,30,07,39,16.10
2015,07,30,07,40,16.10
2015,07,30,07,41,16.10
2015,07,30,07,42,16.10
2015,07,30,07,43,16.10
2015,07,30,07,44,16.10
2015,07,30,07,45,16.00
2015,07,30,07,46,16.00
2015,07,30,07,47,16.00
2015,07,30,07,48,16.10
2015,07,30,07,49,16.10
2015,07,30,07,50,16.10
2015,07,30,07,51,16.10
2015,07,30,07,52,16.20
2015,07,30,07,53,16.20
2015,07,30,07,54,16.20
2015,07,30,07,55,16.20
2015,07,30,07,56,16.20
2015,07,30,07,57,16.20
2015,07,30,07,58,16.20
2015,07,30,07,59,16.20
2015,07,30,08,00,16.20
2015,07,30,08,01,16.20
2015,07,30,08,02,16.20
2015,07,30,08,03,16.20
2015,07,30,08,04,16.30
2015,07,30,08,05,16.30
2015,07,30,08,06,16.30
2015,07,30,08,07,16.40
2015,07,30,08,08,16.40
2015,07,30,08,09,16.40
2015,07,30,08,10,16.50
2015,07,30,08,11,16.50
2015,07,30,08,12,16.60
2015,07,30,08,13,16.50
2015,07,30,08,14,16.50
2015,07,30,08,15,16.50
2015,07,30,08,16,16.50
2015,07,30,08,17,16.50
2015,07,30,08,18,16.40
2015,07,30,08,19,16.40
2015,07,30,08,20,16.30
2015,07,30,08,21,16.30
2015,07,30,08,22,16.30
2015,07,30,08,23,16.30
2015,07,30,08,24,16.30
2015,07,30,08,25,16.40
2015,07,30,08,26,16.50
2015,07,30,08,27,16.50
2015,07,30,08,28,16.60
2015,07,30,08,29,16.60
2015,07,30,08,30,16.70
2015,07,30,08,31,16.70
2015,07,30,08,32,16.80
2015,07,30,08,33,16.90
2015,07,30,08,34,17.00
2015,07,30,08,35,17.10
2015,07,30,08,36,17.20
2015,07,30,08,37,17.30
2015,07,30,08,38,17.40
2015,07,30,08,39,17.40
2015,07,30,08,40,17.50
2015,07,30,08,41,17.60
2015,07,30,08,42,17.60
2015,07,30,08,43,17.60
2015,07,30,08,44,17.60
2015,07,30,08,45,17.60
2015,07,30,08,46,17.60
2015,07,30,08,47,17.60
2015,07,30,08,48,17.60
2015,07,30,08,49,17.60
2015,07,30,08,50,17.50
2015,07,30,08,51,17.50
2015,07,30,08,52,17.40
2015,07,30,08,53,17.40
2015,07,30,08,54,17.30
2015,07,30,08,55,17.30
2015,07,30,08,56,17.20
2015,07,30,08,57,17.20
2015,07,30,08,58,17.20
2015,07,30,08,59,17.20
2015,07,30,09,00,17.20
2015,07,30,09,01,17.20
2015,07,30,09,02,17.20
2015,07,30,09,03,17.10
2015,07,30,09,04,17.10
2015,07,30,09,05,17.10
2015,07,30,09,06,17.00
2015,07,30,09,07,17.00
2015,07,30,09,08,16.90
2015,07,30,09,09,16.90
2015,07,30,09,10,17.00
2015,07,30,09,11,17.00
2015,07,30,09,12,17.10
2015,07,30,09,13,17.20
2015,07,30,09,14,17.20
2015,07,30,09,15,17.30
2015,07,30,09,16,17.30
2015,07,30,09,17,17.30
2015,07,30,09,18,17.30
2015,07,30,09,19,17.20
2015,07,30,09,20,17.20
2015,07,30,09,21,17.20
2015,07,30,09,22,17.10
2015,07,30,09,23,17.10
2015,07,30,09,24,17.00
2015,07,30,09,25,17.00
2015,07,30,09,26,17.10
2015,07,30,09,27,17.10
2015,07,30,09,28,17.10
2015,07,30,09,29,17.20
2015,07,30,09,30,17.20
2015,07,30,09,31,17.20
2015,07,30,09,32,17.20
2015,07,30,09,33,17.20
2015,07,30,09,34,17.30
2015,07,30,09,35,17.30
2015,07,30,09,36,17.20
2015,07,30,09,37,17.30
2015,07,30,09,38,17.30
2015,07,30,09,39,17.40
2015,07,30,09,40,17.40
2015,07,30,09,41,17.50
2015,07,30,09,42,17.50
2015,07,30,09,43,17.40
2015,07,30,09,44,17.40
2015,07,30,09,45,17.40
2015,07,30,09,46,17.40
2015,07,30,09,47,17.50
2015,07,30,09,48,17.50
2015,07,30,09,49,17.60
2015,07,30,09,50,17.60
2015,07,30,09,51,17.60
2015,07,30,09,52,17.70
2015,07,30,09,53,17.90
2015,07,30,09,54,18.10
2015,07,30,09,55,18.20
2015,07,30,09,56,18.30
2015,07,30,09,57,18.40
2015,07,30,09,58,18.50
2015,07,30,09,59,18.60
2015,07,30,10,00,18.70
2015,07,30,10,01,18.80
2015,07,30,10,02,19.00
2015,07,30,10,03,19.10
2015,07,30,10,04,19.30
2015,07,30,10,05,19.40
2015,07,30,10,06,19.60
2015,07,30,10,07,19.70
2015,07,30,10,08,19.80
2015,07,30,10,09,19.80
2015,07,30,10,10,19.80
2015,07,30,10,11,19.80
2015,07,30,10,12,20.00
2015,07,30,10,13,20.10
2015,07,30,10,14,20.20
2015,07,30,10,15,20.20
2015,07,30,10,16,20.20
2015,07,30,10,17,20.30
2015,07,30,10,18,20.30
2015,07,30,10,19,20.40
2015,07,30,10,20,20.50
2015,07,30,10,21,20.50
2015,07,30,10,22,20.60
2015,07,30,10,23,20.60
2015,07,30,10,24,20.60
2015,07,30,10,25,20.70
2015,07,30,10,26,20.70
2015,07,30,10,27,20.70
2015,07,30,10,28,20.70
2015,07,30,10,29,20.60
2015,07,30,10,30,20.70
2015,07,30,10,31,20.70
2015,07,30,10,32,20.70
2015,07,30,10,33,20.70
2015,07,30,10,34,20.70
2015,07,30,10,35,20.70
2015,07,30,10,36,20.60
2015,07,30,10,37,20.60
2015,07,30,10,38,20.60
2015,07,30,10,39,20.60
2015,07,30,10,40,20.60
2015,07,30,10,41,20.70
2015,07,30,10,42,20.70
2015,07,30,10,43,20.80
2015,07,30,10,44,20.80
2015,07,30,10,45,20.80
2015,07,30,10,46,20.80
2015,07,30,10,47,20.90
2015,07,30,10,48,20.90
2015,07,30,10,49,20.90
2015,07,30,10,50,20.90
2015,07,30,10,51,20.90
2015,07,30,10,52,20.90
2015,07,30,10,53,20.90
2015,07,30,10,54,20.90
2015,07,30,10,55,20.90
2015,07,30,10,56,20.90
2015,07,30,10,57,20.90
2015,07,30,10,58,21.00
2015,07,30,10,59,21.10
2015,07,30,11,00,21.20
2015,07,30,11,01,21.20
2015,07,30,11,02,21.20
2015,07,30,11,03,21.20
2015,07,30,11,04,21.30
2015,07,30,11,05,21.20
2015,07,30,11,06,21.20
2015,07,30,11,07,21.20
2015,07,30,11,08,21.20
2015,07,30,11,09,21.20
2015,07,30,11,10,21.20
2015,07,30,11,11,21.20
2015,07,30,11,12,21.10
2015,07,30,11,13,21.10
2015,07,30,11,14,21.10
2015,07,30,11,15,21.00
2015,07,30,11,16,20.90
2015,07,30,11,17,20.90
2015,07,30,11,18,20.90
2015,07,30,11,19,20.80
2015,07,30,11,20,20.80
2015,07,30,11,21,20.90
2015,07,30,11,22,21.00
2015,07,30,11,23,21.10
2015,07,30,11,24,21.20
2015,07,30,11,25,21.30
2015,07,30,11,26,21.40
2015,07,30,11,27,21.40
2015,07,30,11,28,21.50
2015,07,30,11,29,21.60
2015,07,30,11,30,21.60
2015,07,30,11,31,21.70
2015,07,30,11,32,21.70
2015,07,30,11,33,21.70
2015,07,30,11,34,21.80
2015,07,30,11,35,21.70
2015,07,30,11,36,21.70
2015,07,30,11,37,21.60
2015,07,30,11,38,21.60
2015,07,30,11,39,21.60
2015,07,30,11,40,21.70
2015,07,30,11,41,21.70
2015,07,30,11,42,21.70
2015,07,30,11,43,21.80
2015,07,30,11,44,21.90
2015,07,30,11,45,22.00
2015,07,30,11,46,22.00
2015,07,30,11,47,21.90
2015,07,30,11,48,21.90
2015,07,30,11,49,21.90
2015,07,30,11,50,21.90
2015,07,30,11,51,21.90
2015,07,30,11,52,22.00
2015,07,30,11,53,22.10
2015,07,30,11,54,22.10
2015,07,30,11,55,22.20
2015,07,30,11,56,22.20
2015,07,30,11,57,22.20
2015,07,30,11,58,22.20
2015,07,30,11,59,22.30
2015,07,30,12,00,22.30
2015,07,30,12,01,22.30
2015,07,30,12,02,22.30
2015,07,30,12,03,22.30
2015,07,30,12,04,22.30
2015,07,30,12,05,22.30
2015,07,30,12,06,22.30
2015,07,30,12,07,22.30
2015,07,30,12,08,22.30
2015,07,30,12,09,22.30
2015,07,30,12,10,22.30
2015,07,30,12,11,22.30
2015,07,30,12,12,22.30
2015,07,30,12,13,22.30
2015,07,30,12,14,22.30
2015,07,30,12,15,22.30
2015,07,30,12,16,22.30
2015,07,30,12,17,22.40
2015,07,30,12,18,22.40
2015,07,30,12,19,22.40
2015,07,30,12,20,22.40
2015,07,30,12,21,22.50
2015,07,30,12,22,22.50
2015,07,30,12,23,22.50
2015,07,30,12,24,22.60
2015,07,30,12,25,22.60
2015,07,30,12,26,22.60
2015,07,30,12,27,22.70
2015,07,30,12,28,22.70
2015,07,30,12,29,22.70
2015,07,30,12,30,22.80
2015,07,30,12,31,22.80
2015,07,30,12,32,22.70
2015,07,30,12,33,22.70
2015,07,30,12,34,22.70
2015,07,30,12,35,22.80
2015,07,30,12,36,22.80
2015,07,30,12,37,22.80
2015,07,30,12,38,22.80
2015,07,30,12,39,22.80
2015,07,30,12,40,22.80
2015,07,30,12,41,22.80
2015,07,30,12,42,22.90
2015,07,30,12,43,22.90
2015,07,30,12,44,22.90
2015,07,30,12,45,23.00
2015,07,30,12,46,23.00
2015,07,30,12,47,23.10
2015,07,30,12,48,23.10
2015,07,30,12,49,23.10
2015,07,30,12,50,23.10
2015,07,30,12,51,23.10
2015,07,30,12,52,23.10
2015,07,30,12,53,23.10
2015,07,30,12,54,23.10
2015,07,30,12,55,23.10
2015,07,30,12,56,23.10
2015,07,30,12,57,23.10
2015,07,30,12,58,23.10
2015,07,30,12,59,23.10
2015,07,30,13,00,23.10
2015,07,30,13,01,23.10
2015,07,30,13,02,23.10
2015,07,30,13,03,23.20
2015,07,30,13,04,23.20
2015,07,30,13,05,23.20
2015,07,30,13,06,23.20
2015,07,30,13,07,23.20
2015,07,30,13,08,23.10
2015,07,30,13,09,23.20
2015,07,30,13,10,23.20
2015,07,30,13,11,23.20
2015,07,30,13,12,23.20
2015,07,30,13,13,23.20
2015,07,30,13,14,23.30
2015,07,30,13,15,23.30
2015,07,30,13,16,23.30
2015,07,30,13,17,23.30
2015,07,30,13,18,23.20
2015,07,30,13,19,23.10
2015,07,30,13,20,23.20
2015,07,30,13,21,23.20
2015,07,30,13,22,23.20
2015,07,30,13,23,23.20
2015,07,30,13,24,23.20
2015,07,30,13,25,23.20
2015,07,30,13,26,23.20
2015,07,30,13,27,23.20
2015,07,30,13,28,23.30
2015,07,30,13,29,23.30
2015,07,30,13,30,23.30
2015,07,30,13,31,23.40
2015,07,30,13,32,23.40
2015,07,30,13,33,23.40
2015,07,30,13,34,23.50
2015,07,30,13,35,23.60
2015,07,30,13,36,23.60
2015,07,30,13,37,23.60
2015,07,30,13,38,23.50
2015,07,30,13,39,23.40
2015,07,30,13,40,23.40
2015,07,30,13,41,23.40
2015,07,30,13,42,23.40
2015,07,30,13,43,23.40
2015,07,30,13,44,23.40
2015,07,30,13,45,23.50
2015,07,30,13,46,23.50
2015,07,30,13,47,23.50
2015,07,30,13,48,23.50
2015,07,30,13,49,23.40
2015,07,30,13,50,23.40
2015,07,30,13,51,23.40
2015,07,30,13,52,23.40
2015,07,30,13,53,23.40
2015,07,30,13,54,23.40
2015,07,30,13,55,23.40
2015,07,30,13,56,23.30
2015,07,30,13,57,23.30
2015,07,30,13,58,23.30
2015,07,30,13,59,23.20
2015,07,30,14,00,23.20
2015,07,30,14,01,23.20
2015,07,30,14,02,23.20
2015,07,30,14,03,23.30
2015,07,30,14,04,23.40
2015,07,30,14,05,23.50
2015,07,30,14,06,23.60
2015,07,30,14,07,23.70
2015,07,30,14,08,23.80
2015,07,30,14,09,23.90
2015,07,30,14,10,24.00
2015,07,30,14,11,24.10
2015,07,30,14,12,24.20
2015,07,30,14,13,24.10
2015,07,30,14,14,24.10
2015,07,30,14,15,24.10
2015,07,30,14,16,24.10
2015,07,30,14,17,24.10
2015,07,30,14,18,23.90
2015,07,30,14,19,23.80
2015,07,30,14,20,23.60
2015,07,30,14,21,23.60
2015,07,30,14,22,23.60
2015,07,30,14,23,23.60
2015,07,30,14,24,23.60
2015,07,30,14,25,23.80
2015,07,30,14,26,23.80
2015,07,30,14,27,23.90
2015,07,30,14,28,23.90
2015,07,30,14,29,24.00
2015,07,30,14,30,24.10
2015,07,30,14,31,24.10
2015,07,30,14,32,24.20
2015,07,30,14,33,24.30
2015,07,30,14,34,24.30
2015,07,30,14,35,24.40
2015,07,30,14,36,24.40
2015,07,30,14,37,24.40
2015,07,30,14,38,24.40
2015,07,30,14,39,24.40
2015,07,30,14,40,24.40
2015,07,30,14,41,24.30
2015,07,30,14,42,24.40
2015,07,30,14,43,24.50
2015,07,30,14,44,24.50
2015,07,30,14,45,24.60
2015,07,30,14,46,24.70
2015,07,30,14,47,24.80
2015,07,30,14,48,24.90
2015,07,30,14,49,24.90
2015,07,30,14,50,24.90
2015,07,30,14,51,24.60
2015,07,30,14,52,24.40
2015,07,30,14,53,24.20
2015,07,30,14,54,24.00
2015,07,30,14,55,23.90
2015,07,30,14,56,23.80
2015,07,30,14,57,23.80
2015,07,30,14,58,23.70
2015,07,30,14,59,23.50
2015,07,30,15,00,23.10
2015,07,30,15,01,22.70
2015,07,30,15,02,22.30
2015,07,30,15,03,22.00
2015,07,30,15,04,21.80
2015,07,30,15,05,21.80
2015,07,30,15,06,21.70
2015,07,30,15,07,21.70
2015,07,30,15,08,21.70
2015,07,30,15,09,21.70
2015,07,30,15,10,21.70
2015,07,30,15,11,21.50
2015,07,30,15,12,20.90
2015,07,30,15,13,20.50
2015,07,30,15,14,19.80
2015,07,30,15,15,19.40
2015,07,30,15,16,19.00
2015,07,30,15,17,18.70
2015,07,30,15,18,18.50
2015,07,30,15,19,18.30
2015,07,30,15,20,18.20
2015,07,30,15,21,18.10
2015,07,30,15,22,18.00
2015,07,30,15,23,17.90
2015,07,30,15,24,17.70
2015,07,30,15,25,17.60
2015,07,30,15,26,17.60
2015,07,30,15,27,17.60
2015,07,30,15,28,17.50
2015,07,30,15,29,17.40
2015,07,30,15,30,17.30
2015,07,30,15,31,17.30
2015,07,30,15,32,17.20
2015,07,30,15,33,17.20
2015,07,30,15,34,17.20
2015,07,30,15,35,17.20
2015,07,30,15,36,17.20
2015,07,30,15,37,17.20
2015,07,30,15,38,17.30
2015,07,30,15,39,17.30
2015,07,30,15,40,17.30
2015,07,30,15,41,17.30
2015,07,30,15,42,17.30
2015,07,30,15,43,17.30
2015,07,30,15,44,17.30
2015,07,30,15,45,17.30
2015,07,30,15,46,17.40
2015,07,30,15,47,17.40
2015,07,30,15,48,17.50
2015,07,30,15,49,17.60
2015,07,30,15,50,17.60
2015,07,30,15,51,17.70
2015,07,30,15,52,17.70
2015,07,30,15,53,17.60
2015,07,30,15,54,17.50
2015,07,30,15,55,17.50
2015,07,30,15,56,17.40
2015,07,30,15,57,17.40
2015,07,30,15,58,17.50
2015,07,30,15,59,17.40
2015,07,30,16,00,17.40
2015,07,30,16,01,17.40
2015,07,30,16,02,17.40
2015,07,30,16,03,17.40
2015,07,30,16,04,17.40
2015,07,30,16,05,17.40
2015,07,30,16,06,17.40
2015,07,30,16,07,17.40
2015,07,30,16,08,17.40
2015,07,30,16,09,17.40
2015,07,30,16,10,17.40
2015,07,30,16,11,17.40
2015,07,30,16,12,17.40
2015,07,30,16,13,17.40
2015,07,30,16,14,17.40
2015,07,30,16,15,17.40
2015,07,30,16,16,17.50
2015,07,30,16,17,17.50
2015,07,30,16,18,17.50
2015,07,30,16,19,17.50
2015,07,30,16,20,17.50
2015,07,30,16,21,17.50
2015,07,30,16,22,17.50
2015,07,30,16,23,17.60
2015,07,30,16,24,17.60
2015,07,30,16,25,17.70
2015,07,30,16,26,17.80
2015,07,30,16,27,17.80
2015,07,30,16,28,17.90
2015,07,30,16,29,17.90
2015,07,30,16,30,18.00
2015,07,30,16,31,18.10
2015,07,30,16,32,18.10
2015,07,30,16,33,18.10
2015,07,30,16,34,18.10
2015,07,30,16,35,18.10
2015,07,30,16,36,18.00
2015,07,30,16,37,18.00
2015,07,30,16,38,18.00
2015,07,30,16,39,18.00
2015,07,30,16,40,18.00
2015,07,30,16,41,18.00
2015,07,30,16,42,18.00
2015,07,30,16,43,18.00
2015,07,30,16,44,18.00
2015,07,30,16,45,18.00
2015,07,30,16,46,18.00
2015,07,30,16,47,18.10
2015,07,30,16,48,18.10
2015,07,30,16,49,18.20
2015,07,30,16,50,18.30
2015,07,30,16,51,18.30
2015,07,30,16,52,18.40
2015,07,30,16,53,18.50
2015,07,30,16,54,18.60
2015,07,30,16,55,18.70
2015,07,30,16,56,18.80
2015,07,30,16,57,19.00
2015,07,30,16,58,19.20
2015,07,30,16,59,19.40
2015,07,30,17,00,19.70
2015,07,30,17,01,19.80
2015,07,30,17,02,20.00
2015,07,30,17,03,20.20
2015,07,30,17,04,20.30
2015,07,30,17,05,20.50
2015,07,30,17,06,20.60
2015,07,30,17,07,20.70
2015,07,30,17,08,20.80
2015,07,30,17,09,20.90
2015,07,30,17,10,21.00
2015,07,30,17,11,21.10
2015,07,30,17,12,21.10
2015,07,30,17,13,21.10
2015,07,30,17,14,21.10
2015,07,30,17,15,21.20
2015,07,30,17,16,21.20
2015,07,30,17,17,21.30
2015,07,30,17,18,21.40
2015,07,30,17,19,21.50